Location: Newark
(43.9494°N, 6.8108°E)
Time: 01:20:20
(UTC+00:00)

S-56A Canister/Altair - Visible Passes

Search period start: 20 October 2019 00:00
Search period end: 30 October 2019 00:00
Orbit: 633 x 2499 km, 38.9° (Epoch: 18 October)

Date Brightness Start Highest point End Pass type
(mag) Time Alt. Az. Time Alt. Az. Time Alt. Az.
20 Oct 9.5 02:15:22 36° ESE 02:15:22 36° ESE 02:21:48 10° E visible
20 Oct 9.0 04:12:48 26° WSW 04:17:28 65° S 04:28:38 10° E visible
21 Oct 10.1 01:44:31 23° ESE 01:44:31 23° ESE 01:48:16 10° E visible
21 Oct 8.7 03:41:57 42° SW 03:44:34 62° S 03:54:57 10° E visible
22 Oct 10.7 01:13:40 13° E 01:13:40 13° E 01:14:46 10° E visible
22 Oct 8.5 03:11:06 58° SSW 03:11:45 60° S 03:21:20 10° E visible
22 Oct 9.4 05:08:31 10° W 05:16:12 58° S 05:27:52 10° ESE visible
23 Oct 8.9 02:40:14 50° SE 02:40:14 50° SE 02:47:47 10° E visible
23 Oct 9.1 04:37:40 20° W 04:43:13 59° S 04:54:14 10° ESE visible
24 Oct 9.6 02:09:23 33° ESE 02:09:23 33° ESE 02:14:18 10° E visible
24 Oct 8.9 04:06:49 33° WSW 04:10:18 59° S 04:20:37 10° ESE visible
25 Oct 10.3 01:38:33 19° E 01:38:33 19° E 01:40:55 10° E visible
25 Oct 8.5 03:35:58 50° SW 03:37:28 59° S 03:47:03 10° ESE visible
26 Oct 8.5 03:05:09 57° SSE 03:05:09 57° SSE 03:13:32 10° ESE visible
26 Oct 9.5 05:02:35 13° W 05:08:55 42° SSW 05:19:04 10° SE visible
27 Oct 9.2 02:34:21 40° SE 02:34:21 40° SE 02:40:07 10° ESE visible
27 Oct 9.2 04:31:46 23° WSW 04:36:02 43° SSW 04:45:38 10° SE visible
28 Oct 10.0 02:03:33 24° ESE 02:03:33 24° ESE 02:06:45 10° ESE visible
28 Oct 8.8 04:01:00 35° SW 04:03:12 44° SSW 04:12:13 10° SE visible
29 Oct 10.7 01:32:48 13° ESE 01:32:48 13° ESE 01:33:29 10° E visible
29 Oct 8.7 03:30:14 45° SSW 03:30:26 45° SSW 03:38:51 10° SE visible
29 Oct 10.0 05:28:39 10° WSW 05:34:32 24° SSW 05:42:18 10° SSE visible
